Бурмантово

Россия / Свердловская область     61°17′32″N   60°28′37″E
темп.,
°C
ветер,
м/с
пор.,
м/с
влажн.,
%
обл.,
%
осадки,
мм/ч
давл.,
гПа
погр.,
м
27 февраля, сб
сб2723:00−20ю3910098 0.1 1022240
02:00−22ю27100100 0.0 1021178
05:00−24ююв23100100 0.0 102279
08:00−25ююв25100100 0.0 1021151
11:00−22ююв2595100 0.0 1021300
14:00−19юв2591100 0.0 1020421
17:00−18юв2492100 0.0 1019508
20:00−23ююв12100100 0.0 102020
28 февраля, вс
вс2823:00−25ююв11100100 0.1 102020
02:00−27юв11100100 0.0 101919
05:00−28вюв11100100 0.0 101919
08:00−29в0110097 0.0 101919
11:00−23св129498 0.1 1018199
14:00−19св1290100 0.1 1017341
17:00−18св2394100 0.1 1018327
20:00−21ссв119998 0.1 101820
1 марта, пн
пн123:00−23ссз1110098 0.1 101920
02:00−25зюз0110088 0.0 101920
05:00−25ююз119852 0.0 102020
08:00−24ю22980 0.0 102020
11:00−18ю23930 0.0 1019188
14:00−13ю249019 0.0 1017331
17:00−13ю359449 0.0 1016277
20:00−18ю359995 0.0 101698
2 марта, вт
вт223:00−19ююз249887 0.0 101576
02:00−20ююз239614 0.0 101360
05:00−20ююз23947 0.0 101170
08:00−20ююз349357 0.0 100991
11:00−15ю368976 0.0 1008204
14:00−12ю4790100 0.0 1006341
17:00−10ю4991100 0.0 1005497
20:00−11ю41095100 0.0 1005389
3 марта, ср
ср323:00−12ю3895100 0.1 1006322
02:00−13ю3696100 0.2 1005244
05:00−15ююв2597100 0.4 1006165
08:00−15ююв2597100 0.3 1006193
11:00−13ююв2493100 0.7 1007277
14:00−11ююв2492100 0.2 1007396
17:00−11ююв2593100 0.5 1007403
20:00−13ююв2497100 0.2 1007131